Rafik Belmadi

Chefscout - CR Belouizdad
4 Apr 2027
Sonntag
Verarbeitung

Persönlichkeit

Anpassungsfähigkeit (10) Ehrgeiz (6) Kontroverse (2) Loyalität (17) Druck (15) Professionalität (17) Fairness (8) Temperament (2)

Profil

Trainerstil Demokratisch
Lizenz Kontinentale B
Entschlossenheit 6
Menschenführung 5
Motivation 6
Disziplin 9
Arbeitszufriedenheit
50%
Ermüdung
0%
Rolle Chefscout
Gehalt 25.8K p/W
Vertrag 14.03.2030

Leistung

Verhalten Normal
Trainingseffektivität
23%
Spielerentwicklung
20%
Verletzungsprävention
40%
Taktische Umsetzung
45%

Letzte Ereignisse

Nahm an einer Scouting-Besprechung teil jetzt
Spieler begutachtet jetzt
Spieler begutachtet jetzt
Spieler begutachtet jetzt
Spieler begutachtet jetzt
Spiel beobachtet 7T her
Spieler begutachtet 7T her
Spieler begutachtet 7T her

Aktuell beobachtet

186
Spieler Verein Status Fähigkeit Vertrauen Beobachtet Zuletzt beobachtet Letzte Stimme
Abraham Ofori WAFA Aktiv 108 / 101 40% 4 03.04.2027 -
Teboho Tlolane Golden Arrows Aktiv 102 / 109 40% 2 03.04.2027 -
Mohamed Kanno Al-Hilal Aktiv 133 / 117 40% 3 02.04.2027 -
Yassine Benzia Al-Fayha Aktiv 109 / 115 40% 3 02.04.2027 -
Shayne Lavery Cambridge United Aktiv 119 / 101 40% 1 01.04.2027 -
Abdennour Iheb Belhocini JS Kabylie Aktiv 116 / 114 40% 1 01.04.2027 -
Alfa Semedo Al-Fayha Aktiv 132 / 116 40% 6 31.03.2027 -
Josh Neufville Bradford City Aktiv 110 / 113 40% 1 31.03.2027 -
Hamdi Labidi Olympique Akbou Aktiv 113 / 105 40% 2 30.03.2027 -
Ahmed Bamasud Al-Fayha Aktiv 94 / 96 40% 1 30.03.2027 -
Charlie Webster Burton Albion Aktiv 100 / 110 40% 1 30.03.2027 -
Brian Figueroa Morelia Aktiv 116 / 117 40% 3 28.03.2027 -
Noa Cervantes USM Khenchela Aktiv 98 / 106 40% 1 28.03.2027 -
Miro Dinamo Makhachkala Aktiv 102 / 126 40% 2 27.03.2027 -
Adel Bouzida Paradou Aktiv 103 / 89 40% 1 25.03.2027 -
Ihor Krasnopir Polissia Aktiv 108 / 117 40% 1 24.03.2027 -
Danyil Alefirenko Chornomorets Aktiv 123 / 110 40% 1 24.03.2027 -
George Honeyman Blackpool Aktiv 101 / 105 40% 1 22.03.2027 -
Dramane Kamagaté USM Alger Aktiv 100 / 106 40% 3 21.03.2027 -
Jason Al-Fayha Aktiv 139 / 115 40% 9 21.03.2027 -
Ivan Bendera Epicentr Aktiv 105 / 91 40% 1 21.03.2027 -
Harry Cornick AFC Wimbledon Aktiv 101 / 91 40% 1 19.03.2027 -
Fábio Tavares Newport County Aktiv 106 / 97 40% 1 19.03.2027 -
Simon Ramabu Polokwane City Aktiv 121 / 112 40% 5 18.03.2027 -
Josh Dacres-Cogley Stockport County Aktiv 96 / 100 40% 1 18.03.2027 -
Teboho Tau Ajax Cape Town Aktiv 129 / 120 40% 5 17.03.2027 -
Hamza Sakhi Hajer Aktiv 116 / 111 40% 1 17.03.2027 -
Thabo Nodada Maritzburg United Aktiv 96 / 102 40% 4 16.03.2027 -
Edarlyn Reyes Arsenal Tula Aktiv 119 / 105 40% 5 15.03.2027 -
Yevhen Pidlepenets Bukovyna Aktiv 103 / 106 40% 1 15.03.2027 -
Wadhah Zaidi Hajer Aktiv 96 / 93 40% 2 14.03.2027 -
Mohau Nkota Al-Ettifaq Aktiv 127 / 115 40% 1 14.03.2027 -
Younes El Bahraoui Al-Taawoun Aktiv 124 / 108 40% 8 12.03.2027 -
Luther Zwane Platinum Stars Aktiv 91 / 115 40% 2 12.03.2027 -
Charlie Whitaker Tranmere Rovers Aktiv 102 / 110 40% 1 12.03.2027 -
Albert Amoah Hajer Aktiv 90 / 103 40% 1 12.03.2027 -
Valentín Vada Damac Aktiv 122 / 109 40% 2 10.03.2027 -
Ghiles Guenaoui USM Alger Aktiv 109 / 108 40% 2 09.03.2027 -
Lebogang Erasmus Platinum Stars Aktiv 107 / 109 40% 2 07.03.2027 -
Gorka Gorosabel Real Sociedad Aktiv 118 / 105 40% 1 07.03.2027 -
Álvaro Medrán Al-Ettifaq Aktiv 123 / 135 40% 4 06.03.2027 -
Mark Helm Fleetwood Town Aktiv 96 / 101 40% 1 04.03.2027 -
Braian Álvarez Arsenal Tula Aktiv 115 / 91 40% 1 02.03.2027 -
Ali Saleh Al Wasl Aktiv 132 / 117 40% 3 01.03.2027 -
Emanuele Scipioni Monopoli Aktiv 94 / 108 40% 1 28.02.2027 -
Jordhy Thompson Orenburg Aktiv 112 / 115 40% 1 25.02.2027 -
Matías Lacava Vizela Aktiv 120 / 114 40% 1 25.02.2027 -
Tariq Abdullah Damac Aktiv 114 / 112 40% 1 25.02.2027 -
Hamed Al-Ghamdi Al-Wehda Aktiv 120 / 108 40% 1 24.02.2027 -
Daniil Konoplev Dinamo Bryansk Aktiv 95 / 91 40% 1 24.02.2027 -
Bradley Mothiba SuperSport United Aktiv 110 / 105 40% 2 21.02.2027 -
Mohammed Al-Dossary Al-Ra'ed Aktiv 88 / 94 40% 1 21.02.2027 -
Sinoxolo Kwayiba Chippa United Aktiv 129 / 119 40% 1 21.02.2027 -
Trezeguet Al-Riyadh Aktiv 124 / 124 40% 4 19.02.2027 -
Saeed Al-Hamsal Al-Khaleej Aktiv 120 / 99 40% 2 18.02.2027 -
Daniel Kyerewaa Reading Aktiv 103 / 110 40% 3 18.02.2027 -
Erick Ngcobo Black Aces Aktiv 89 / 100 40% 3 16.02.2027 -
Faiz Mattoir Septemvri Aktiv 116 / 99 40% 1 16.02.2027 -
Sultan Mandash Al-Hilal Aktiv 107 / 117 40% 1 15.02.2027 -
Thulani Mabaso Platinum Stars Aktiv 115 / 111 40% 3 14.02.2027 -
Leo Goglichidze Rodina Aktiv 98 / 112 40% 2 14.02.2027 -
Louis Appéré Cambridge United Aktiv 82 / 92 40% 1 14.02.2027 -
Stanislav Biblyk Chaika Aktiv 90 / 97 40% 1 14.02.2027 -
Haman Mandjan Al-Ra'ed Aktiv 98 / 107 40% 1 09.02.2027 -
Maxim Kutovoy Salyut Aktiv 100 / 93 40% 1 08.02.2027 -
Kwame Opoku Asante Kotoko Aktiv 98 / 95 40% 1 08.02.2027 -
Siyanda Ndlovu Hearts of Oak Aktiv 112 / 111 40% 2 05.02.2027 -
Lewis McCann Fleetwood Town Aktiv 83 / 105 40% 2 05.02.2027 -
Velemseni Ndwandwe Golden Arrows Aktiv 120 / 112 40% 2 03.02.2027 -
Gift Ngcobo SuperSport United Aktiv 107 / 105 40% 1 03.02.2027 -
Lebohang Maboe Kaizer Chiefs Aktiv 129 / 110 40% 3 02.02.2027 -
Midana Cassamá Portimonense Aktiv 94 / 110 40% 1 02.02.2027 -
Amos Inusah Wa All Stars Aktiv 110 / 113 40% 1 02.02.2027 -
Václav Sejk Sigma Olomouc Aktiv 128 / 108 40% 1 01.02.2027 -
Jean Charles Ahoua Al-Faisaly Aktiv 86 / 104 40% 1 30.01.2027 -
André Miranda Porto Aktiv 98 / 97 40% 1 30.01.2027 -
Gift Mothiba Black Aces Aktiv 115 / 90 40% 1 29.01.2027 -
Saeed Al Naqbi Al Ahli Aktiv 126 / 115 40% 2 28.01.2027 -
Solly Khunyedi Bloemfontein Celtic Aktiv 106 / 97 40% 2 26.01.2027 -
Mehdi Zeffane ES Mostaganem Aktiv 112 / 111 55% 1 25.01.2027 -
Jay Matete Milton Keynes Dons Aktiv 97 / 119 40% 2 24.01.2027 -
Iker Pozo Rodina Aktiv 129 / 120 40% 1 24.01.2027 -
Nduduzo Sibiya Golden Arrows Aktiv 127 / 112 40% 2 22.01.2027 -
Abdullah Al-Khaibari Al-Nassr Aktiv 100 / 110 40% 1 22.01.2027 -
Nour El Islam Fettouhi JS Saoura Aktiv 108 / 93 40% 1 20.01.2027 -
Dumisani Zuma Bidvest Wits Aktiv 99 / 89 40% 1 18.01.2027 -
Ahmed Al-Ghamdi Al-Ittihad Aktiv 100 / 108 40% 1 16.01.2027 -
Celso Sidney Cherno More Aktiv 103 / 111 40% 1 16.01.2027 -
Antony Medrano Dobrudzha Aktiv 86 / 95 40% 1 14.01.2027 -
Connor Barrett Walsall Aktiv 109 / 111 40% 1 13.01.2027 -
Wandile Duba Bidvest Wits Aktiv 115 / 108 40% 5 11.01.2027 -
Soltmurad Bakaev Rodina Aktiv 100 / 98 40% 1 11.01.2027 -
Yacine Aliane MC Oran Aktiv 105 / 106 40% 1 07.01.2027 -
Agustín Ramírez Inter Aktiv 109 / 108 40% 1 05.01.2027 -
Kyle John Port Vale Aktiv 110 / 101 40% 1 04.01.2027 -
Damián Puebla Orenburg Aktiv 138 / 130 40% 1 04.01.2027 -
Kyreece Lisbie Colchester United Aktiv 119 / 107 40% 1 03.01.2027 -
Abdulmalik Al-Jaber Al-Nassr Aktiv 89 / 115 40% 1 02.01.2027 -
Ben Ahmed Kohili Paradou Aktiv 92 / 109 55% 1 01.01.2027 -
Evidence Mokoena Platinum Stars Aktiv 113 / 100 40% 3 30.12.2026 -
Tenton Yenne Baltika Aktiv 126 / 109 40% 1 30.12.2026 -
Marcus Browne AFC Wimbledon Aktiv 111 / 110 40% 1 28.12.2026 -
Qara Ozobic Inter Aktiv 92 / 109 40% 1 28.12.2026 -
Rivaldo Ngcobo Free State Stars Aktiv 115 / 95 40% 4 27.12.2026 -
Silvère Ganvoula Al-Fayha Aktiv 108 / 118 40% 6 27.12.2026 -
Dániel Lukács Puskas Akademia Aktiv 127 / 115 40% 5 25.12.2026 -
Davit Volkovi Zira Aktiv 129 / 119 40% 2 25.12.2026 -
Moussa Koné Al-Ra'ed Aktiv 129 / 116 40% 1 23.12.2026 -
Dario Vizinger NK Maribor Aktiv 116 / 111 40% 1 22.12.2026 -
Juanjo Narváez Al-Ra'ed Aktiv 100 / 109 40% 4 21.12.2026 -
Martin Sekulić Ural Aktiv 103 / 114 40% 2 21.12.2026 -
Gilson Benchimol Akron Aktiv 96 / 119 40% 2 20.12.2026 -
Matty Stevens AFC Wimbledon Aktiv 90 / 110 40% 1 19.12.2026 -
François Kamano Sochi Aktiv 126 / 111 40% 2 18.12.2026 -
Darío Poveda Nea Salamis Aktiv 112 / 99 40% 1 18.12.2026 -
Hlompho Modiba Black Aces Aktiv 93 / 87 40% 2 17.12.2026 -
Aaron Drinan Swindon Town Aktiv 99 / 98 40% 2 17.12.2026 -
Alexandr Yushin Torpedo Moscow Aktiv 107 / 108 40% 1 17.12.2026 -
Róbert Polievka MTK Budapest Aktiv 123 / 117 40% 2 13.12.2026 -
Stephen Humphrys Bradford City Aktiv 127 / 101 40% 1 13.12.2026 -
Salem Al Kamali Al Jazira Aktiv 126 / 126 40% 5 12.12.2026 -
Mohanad Ali Dibba Aktiv 98 / 121 40% 3 12.12.2026 -
Sam Nombe Milton Keynes Dons Aktiv 122 / 111 40% 1 12.12.2026 -
Ousmane Camara Sharjah Aktiv 102 / 123 40% 1 12.12.2026 -
Bruno Al Jazira Aktiv 112 / 106 40% 4 09.12.2026 -
Jordan Roberts Stevenage Aktiv 123 / 112 40% 1 09.12.2026 -
Firas Ben Larbi Sharjah Abgelehnt 133 / 130 40% 3 07.12.2026 Ablehnen
Barna Tóth Paksi Aktiv 105 / 98 40% 2 07.12.2026 -
Isaac Success Al Shaab Aktiv 106 / 106 40% 5 06.12.2026 -
Zakaria Naïdji MC Alger Aktiv 112 / 109 40% 1 04.12.2026 -
Renato Júnior Al Wasl Aktiv 130 / 113 40% 5 03.12.2026 -
Milan Tučić Honved Aktiv 116 / 96 40% 1 03.12.2026 -
Sory Kaba Al Dhafra Aktiv 132 / 128 40% 2 01.12.2026 -
Karim El Berkaoui Al Dhafra Aktiv 120 / 129 40% 3 30.11.2026 -
Milán Tóth Vasas Aktiv 92 / 112 40% 1 30.11.2026 -
Keagan Manyama Ajax Cape Town Aktiv 97 / 114 40% 1 29.11.2026 -
Jordan Larsson Al-Ettifaq Aktiv 107 / 120 40% 1 29.11.2026 -
Fahad Al-Zubaidi Al-Fateh Aktiv 109 / 113 40% 3 28.11.2026 -
Törles Knöll Al-Ta'ee Aktiv 105 / 94 40% 1 26.11.2026 -
Facundo Kruspzky Al Wahda Aktiv 124 / 126 40% 3 25.11.2026 -
Nicolás Giménez Al Wasl Aktiv 135 / 128 40% 2 25.11.2026 -
Kagiso Malinga Bidvest Wits Aktiv 85 / 107 40% 1 19.11.2026 -
Anatole Abang USM Alger Aktiv 120 / 115 40% 2 16.11.2026 -
Omar Khribin Al Wahda Aktiv 114 / 126 40% 2 13.11.2026 -
Lucas González Estudiantes Aktiv 96 / 104 40% 2 13.11.2026 -
Caio Lucas Al Ain Aktiv 125 / 118 40% 4 12.11.2026 -
Isaac Tshibangu Emirates Club Aktiv 117 / 97 40% 2 12.11.2026 -
Augustine Oladapo Al-Wehda Aktiv 115 / 106 40% 1 12.11.2026 -
Radek Šiler Podbrezova Aktiv 98 / 122 40% 2 09.11.2026 -
Abdulla Anwar Al Fujairah Aktiv 100 / 86 40% 1 09.11.2026 -
Alejandro Melo Temperley Aktiv 124 / 106 40% 1 05.11.2026 -
Carlos Guerreño Najran Aktiv 103 / 110 40% 1 04.11.2026 -
Alimi Sikiru JS Saoura Aktiv 116 / 96 40% 1 03.11.2026 -
Chris Bedia Al Nasr Aktiv 110 / 123 40% 3 02.11.2026 -
Bandar Al Kamali Al Shaab Aktiv 106 / 102 40% 1 01.11.2026 -
Darwin González Al-Wehda Aktiv 133 / 119 40% 1 01.11.2026 -
Amur Kalmykov Spartak Kostroma Aktiv 110 / 111 40% 1 28.10.2026 -
Marcelo Torres Gimnasia La Plata Aktiv 138 / 124 40% 5 27.10.2026 -
Jerome Karelse Golden Arrows Aktiv 92 / 98 40% 2 19.10.2026 -
Roger Martínez Al-Shabab Aktiv 129 / 134 40% 1 17.10.2026 -
Cavid Madatov Khazar Aktiv 93 / 98 40% 1 15.10.2026 -
Mouhameth Diop Al Fujairah Aktiv 100 / 95 40% 1 15.10.2026 -
Mateo Fernández Angusht Aktiv 73 / 82 40% 1 13.10.2026 -
Shota Shekiladze Dila Aktiv 118 / 115 40% 1 11.10.2026 -
Abdulkarim Darisi Al-Hilal Aktiv 102 / 113 40% 1 09.10.2026 -
Rodin Quiñónes Dinamo Batumi Aktiv 122 / 103 40% 2 08.10.2026 -
Giorgos Giakoumakis Al Ain Aktiv 142 / 125 40% 5 04.10.2026 -
Ramón Mierez Al Nasr Aktiv 123 / 117 40% 1 29.09.2026 -
Ramiro Ruiz Rodríguez Atlético Tucumán Aktiv 126 / 129 40% 2 28.09.2026 -
Fabrizio Sartori Independiente Rivadavia Aktiv 101 / 120 40% 1 28.09.2026 -
Nabil Alioui Damac Aktiv 121 / 105 40% 2 26.09.2026 -
Abdoulaye Touré Al Nasr Aktiv 92 / 113 40% 1 26.09.2026 -
Mohammed Marran Al-Nassr Aktiv 85 / 103 40% 1 25.09.2026 -
Zinho Gano Al-Ra'ed Aktiv 131 / 118 40% 1 25.09.2026 -
David Barbona Defensa y Justicia Aktiv 113 / 127 40% 4 24.09.2026 -
Kristian Eriksen Molde Aktiv 138 / 130 40% 1 23.09.2026 -
Wilfried Eza Al-Faisaly Aktiv 99 / 109 40% 1 22.09.2026 -
Hicham Khaloua Al-Ra'ed Aktiv 92 / 105 40% 1 20.09.2026 -
Moussa Dembélé Al-Ettifaq Aktiv 116 / 120 40% 1 15.09.2026 -
Leandro Antunes Al-Riyadh Aktiv 132 / 109 40% 1 31.08.2026 -
Elton Acolatse Al-Hazem Aktiv 108 / 107 40% 1 31.08.2026 -
Abdullah Al-Hamddan Al-Nassr Aktiv 94 / 113 40% 1 29.08.2026 -
Ibrahim Aliyu Houston Dynamo Aktiv 124 / 118 40% 1 25.08.2026 -
Mohammad Alsalkhadi Damac Aktiv 123 / 112 40% 1 21.08.2026 -
Kaku Al Ain Aktiv 131 / 121 40% 1 04.08.2026 -
Theo Bongonda Al-Faisaly Aktiv 139 / 134 40% 1 01.08.2026 -